DW6558 Weather Reports


time (UTC)temp
C
wind
direction
speed
KPH
gust
KPH
rain 1hr
cm
rain 24hr
cm
rain mn
cm
humidity
%
barometer
mb
20260831225535 18 38 0.0 3.2 0.00 0.23 0.23 71 934.9
20260831225035 17 57 3.2 4.8 0.00 0.23 0.23 67 934.5
20260831224530 18 52 6.4 9.7 0.00 0.23 0.23 64 934.7
20260831224026 17 25 4.8 12.9 0.00 0.23 0.23 63 934.9
20260831223521 17 5 8.0 12.9 0.00 0.23 0.23 62 934.9
20260831223017 17 23 1.6 9.7 0.00 0.23 0.23 65 935.0
20260831222514 16 326 8.0 11.3 0.00 0.23 0.23 72 934.9
20260831222013 16 336 6.4 12.9 0.00 0.23 0.23 77 935.0
20260831221509 16 6 11.3 16.1 0.00 0.23 0.23 79 935.0
20260831221004 15 12 6.4 9.7 0.00 0.23 0.23 80 935.0
20260831220459 15 317 4.8 9.7 0.00 0.23 0.23 79 935.1
20260831215954 15 7 3.2 8.0 0.00 0.23 0.23 82 935.0
20260831215449 16 344 0.0 0.0 0.00 0.23 0.23 76 935.0
20260831214946 15 89 4.8 9.7 0.13 0.23 0.23 74 934.9
20260831214443 15 125 4.8 9.7 0.79 0.23 0.23 75 935.0
20260831213938 17 151 11.3 27.4 0.79 0.20 0.20 71 934.8
20260831213435 18 153 14.5 22.5 0.13 0.10 0.10 70 934.5
20260831212935 19 146 1.6 4.8 0.00 0.08 0.08 66 934.5
20260831212431 20 142 3.2 8.0 0.00 0.08 0.08 62 934.7
20260831211931 20 94 4.8 9.7 0.00 0.08 0.08 54 934.8
20260831211426 20 121 4.8 8.0 0.00 0.08 0.08 53 934.9
20260831210925 20 91 4.8 11.3 0.00 0.08 0.08 53 935.0
20260831210421 20 114 9.7 12.9 0.00 0.08 0.08 54 934.8
20260831205916 21 62 0.0 9.7 0.00 0.08 0.08 53 934.9
20260831205412 20 157 1.6 11.3 0.00 0.08 0.08 53 935.0
20260831204912 19 144 8.0 14.5 0.00 0.08 0.08 58 934.9
20260831204412 18 268 12.9 16.1 0.00 0.08 0.08 62 935.0
20260831203911 17 129 6.4 11.3 0.00 0.08 0.08 62 935.1
20260831203406 16 110 6.4 11.3 0.18 0.08 0.08 67 935.2
20260831202904 16 80 6.4 12.9 0.30 0.08 0.08 71 935.1
20260831202359 17 137 12.9 16.1 0.30 0.05 0.05 69 935.5
20260831201859 18 144 8.0 12.9 0.18 0.03 0.03 70 935.3
20260831201358 19 31 3.2 11.3 0.00 0.00 0.00 64 935.5
20260831200854 20 119 9.7 12.9 0.00 0.00 0.00 57 935.3
20260831200349 20 115 4.8 11.3 0.00 0.00 0.00 59 935.3
20260831195844 20 138 11.3 14.5 0.00 0.00 0.00 54 935.5
20260831195340 21 137 3.2 12.9 0.00 0.00 0.00 55 935.3
20260831194835 21 114 9.7 14.5 0.00 0.00 0.00 45 935.3
20260831194330 22 143 9.7 16.1 0.00 0.00 0.00 45 935.7
20260831193829 22 131 6.4 24.1 0.00 0.00 0.00 45 935.5
20260831193325 23 69 11.3 25.7 0.00 0.00 0.00 41 935.6
20260831192820 25 87 0.0 1.6 0.00 0.00 0.00 38 935.3
20260831192320 25 115 0.0 0.0 0.00 0.00 0.00 34 935.7
20260831191816 25 44 0.0 0.0 0.00 0.00 0.00 36 935.7
20260831191312 23 84 0.0 0.0 0.00 0.00 0.00 40 935.8
20260831190808 25 69 0.0 0.0 0.00 0.00 0.00 40 935.5
20260831190308 25 61 0.0 1.6 0.00 0.00 0.00 35 935.8
20260831185807 25 288 0.0 1.6 0.00 0.00 0.00 35 935.7
20260831185306 25 341 6.4 9.7 0.00 0.00 0.00 38 935.9
20260831184802 25 4 0.0 8.0 0.00 0.00 0.00 38 936.2
20260831184258 25 19 0.0 1.6 0.00 0.00 0.00 37 936.2
20260831183753 24 333 8.0 9.7 0.00 0.00 0.00 38 936.5
20260831183252 25 9 0.0 0.0 0.00 0.00 0.00 38 936.5
20260831182751 23 4 0.0 9.7 0.00 0.00 0.00 38 936.5
20260831182246 23 351 8.0 11.3 0.00 0.00 0.00 43 936.5
20260831181741 23 338 0.0 9.7 0.00 0.00 0.00 42 936.4
20260831181237 23 359 3.2 9.7 0.00 0.00 0.00 43 936.4
20260831180737 23 337 0.0 0.0 0.00 0.00 0.00 41 936.5
20260831180232 23 335 3.2 4.8 0.00 0.00 0.00 43 936.6
20260831175731 22 348 8.0 12.9 0.00 0.00 0.00 45 936.4
20260831175228 22 357 4.8 9.7 0.00 0.00 0.00 44 936.8
20260831174722 22 332 0.0 8.0 0.00 0.00 0.00 47 936.6
20260831174218 21 6 4.8 8.0 0.00 0.00 0.00 47 936.8
20260831173717 21 14 0.0 9.7 0.00 0.00 0.00 50 936.9
20260831173212 21 14 6.4 11.3 0.00 0.00 0.00 50 936.9
20260831172712 21 10 1.6 4.8 0.00 0.00 0.00 48 936.8
20260831172208 21 349 1.6 3.2 0.00 0.00 0.00 49 936.9
20260831171702 20 250 1.6 4.8 0.00 0.00 0.00 52 936.9
20260831171200 20 297 0.0 4.8 0.00 0.00 0.00 53 937.0
20260831170656 20 354 0.0 0.0 0.00 0.00 0.00 55 937.0
20260831170152 20 299 4.8 4.8 0.00 0.00 0.00 56 936.9
20260831165648 19 4 4.8 8.0 0.00 0.00 0.00 57 936.9
20260831165144 18 8 0.0 3.2 0.00 0.00 0.00 55 936.9
20260831164640 18 344 1.6 4.8 0.00 0.00 0.00 58 937.0
20260831164136 18 353 4.8 8.0 0.00 0.00 0.00 60 936.9
20260831163631 17 318 4.8 8.0 0.00 0.00 0.00 60 936.9
20260831163126 17 356 4.8 4.8 0.00 0.00 0.00 59 936.7
20260831162625 17 334 4.8 8.0 0.00 0.00 0.00 60 936.7
20260831162123 17 7 0.0 0.0 0.00 0.00 0.00 62 936.6
20260831161619 16 7 4.8 8.0 0.00 0.00 0.00 61 936.7
20260831161116 16 347 1.6 8.0 0.00 0.00 0.00 63 936.6
20260831160615 16 7 4.8 8.0 0.00 0.00 0.00 63 936.8
20260831160111 16 5 0.0 0.0 0.00 0.00 0.00 62 936.8
20260831155610 15 29 0.0 1.6 0.00 0.00 0.00 63 936.6
20260831155106 15 10 0.0 3.2 0.00 0.00 0.00 62 936.8
20260831154602 15 357 3.2 4.8 0.00 0.00 0.00 62 937.0
20260831154102 15 353 3.2 4.8 0.00 0.00 0.00 63 937.0
20260831153601 15 359 3.2 4.8 0.00 0.00 0.00 64 937.0
20260831153058 15 1 1.6 3.2 0.00 0.00 0.00 63 937.0
20260831152553 15 4 4.8 4.8 0.00 0.00 0.00 65 936.9
20260831152049 15 15 3.2 3.2 0.00 0.00 0.00 65 937.0
20260831151548 15 16 3.2 3.2 0.00 0.00 0.00 65 937.2
20260831151043 15 47 0.0 0.0 0.00 0.00 0.00 64 937.0
20260831150538 15 55 0.0 0.0 0.00 0.00 0.00 65 937.0
20260831150034 14 46 0.0 0.0 0.00 0.00 0.00 66 937.3
20260831145528 13 45 0.0 1.6 0.00 0.00 0.00 68 937.0
20260831145024 13 66 1.6 4.8 0.00 0.00 0.00 67 937.2
20260831144520 13 53 0.0 1.6 0.00 0.00 0.00 68 937.0
20260831144015 12 65 1.6 3.2 0.00 0.00 0.00 69 936.9
20260831143509 12 75 0.0 3.2 0.00 0.00 0.00 71 937.0
20260831143005 11 81 1.6 3.2 0.00 0.00 0.00 72 937.0
20260831142501 11 46 0.0 1.6 0.00 0.00 0.00 74 937.2
20260831141956 11 83 1.6 3.2 0.00 0.00 0.00 74 936.9
20260831141455 10 85 1.6 8.0 0.00 0.00 0.00 75 936.9
20260831140950 10 78 1.6 3.2 0.00 0.00 0.00 76 936.6
20260831140445 10 64 1.6 4.8 0.00 0.00 0.00 76 936.5
20260831135944 10 46 0.0 0.0 0.00 0.00 0.00 77 936.1
20260831135443 10 83 3.2 4.8 0.00 0.00 0.00 77 936.2
20260831134938 9 50 0.0 0.0 0.00 0.00 0.00 79 936.0
20260831134434 8 76 1.6 3.2 0.00 0.00 0.00 80 936.1
20260831133934 8 79 1.6 3.2 0.00 0.00 0.00 82 936.1
20260831133434 7 48 0.0 1.6 0.00 0.00 0.00 83 935.9
20260831132929 7 70 1.6 4.8 0.00 0.00 0.00 84 935.8
20260831132425 7 79 3.2 4.8 0.00 0.00 0.00 85 935.7
20260831131924 7 72 3.2 3.2 0.00 0.00 0.00 87 935.8
20260831131419 6 58 1.6 3.2 0.00 0.00 0.00 87 935.7
20260831130915 6 62 3.2 4.8 0.00 0.00 0.00 88 935.7
20260831130410 6 129 3.2 4.8 0.00 0.00 0.00 87 935.8
20260831125909 6 79 1.6 3.2 0.00 0.00 0.00 87 935.7
20260831125405 6 86 3.2 4.8 0.00 0.00 0.00 88 935.7
20260831124900 6 110 3.2 3.2 0.00 0.00 0.00 88 935.8
20260831124356 6 95 3.2 3.2 0.00 0.00 0.00 88 935.7
20260831123856 6 47 0.0 3.2 0.00 0.00 0.00 88 935.7
20260831123355 6 55 0.0 4.8 0.00 0.00 0.00 88 935.7
20260831122855 6 72 3.2 3.2 0.00 0.00 0.00 88 935.7
20260831122351 6 91 3.2 3.2 0.00 0.00 0.00 88 935.8
20260831121846 6 98 3.2 3.2 0.00 0.00 0.00 88 935.7
20260831121342 6 65 1.6 3.2 0.00 0.00 0.00 87 935.8
20260831120837 6 71 1.6 3.2 0.00 0.00 0.00 87 935.6
20260831120331 6 79 3.2 3.2 0.00 0.00 0.00 87 935.8
20260831115827 6 49 0.0 3.2 0.00 0.00 0.00 87 935.5
20260831115324 6 85 4.8 4.8 0.00 0.00 0.00 87 935.6
20260831114822 6 88 4.8 4.8 0.00 0.00 0.00 87 935.6
20260831114321 6 76 4.8 4.8 0.00 0.00 0.00 87 935.5
20260831113818 6 60 3.2 3.2 0.00 0.00 0.00 87 935.6
20260831113317 6 67 1.6 3.2 0.00 0.00 0.00 87 935.5
20260831112812 7 34 0.0 3.2 0.00 0.00 0.00 87 935.6
20260831112307 7 87 1.6 3.2 0.00 0.00 0.00 87 935.5
20260831111802 7 69 1.6 3.2 0.00 0.00 0.00 88 935.6
20260831111259 6 92 3.2 4.8 0.00 0.00 0.00 88 935.5
20260831110754 6 75 1.6 3.2 0.00 0.00 0.00 87 935.6
20260831110249 7 79 1.6 3.2 0.00 0.00 0.00 87 935.6
20260831105747 7 44 0.0 0.0 0.00 0.00 0.00 86 935.6
20260831105243 7 62 1.6 3.2 0.00 0.00 0.00 86 935.7
20260831104738 7 78 3.2 4.8 0.00 0.00 0.00 86 935.7
20260831104235 7 82 3.2 3.2 0.00 0.00 0.00 86 935.7
20260831103734 7 80 4.8 4.8 0.00 0.00 0.00 86 935.6
20260831103230 7 68 1.6 3.2 0.00 0.00 0.00 86 935.7
20260831102729 7 31 0.0 1.6 0.00 0.00 0.00 86 935.3
20260831102225 7 130 3.2 4.8 0.00 0.00 0.00 86 935.6
20260831101720 7 41 0.0 3.2 0.00 0.00 0.00 86 935.7
20260831101216 7 97 1.6 4.8 0.00 0.00 0.00 86 935.6
20260831100711 7 77 1.6 4.8 0.00 0.00 0.00 86 935.3
20260831100207 7 73 0.0 3.2 0.00 0.00 0.00 86 935.5
20260831095705 7 52 0.0 1.6 0.00 0.00 0.00 86 935.6
20260831095201 7 44 0.0 1.6 0.00 0.00 0.00 86 935.5
20260831094656 7 68 0.0 1.6 0.00 0.00 0.00 86 935.5
20260831094152 7 62 1.6 3.2 0.00 0.00 0.00 85 935.1
20260831093647 8 113 0.0 0.0 0.00 0.00 0.00 85 935.3
20260831093143 8 114 0.0 0.0 0.00 0.00 0.00 86 935.1
20260831092639 8 67 0.0 0.0 0.00 0.00 0.00 86 935.6
20260831092135 8 49 0.0 0.0 0.00 0.00 0.00 86 935.2
20260831091634 8 48 0.0 0.0 0.00 0.00 0.00 86 935.5
20260831091130 8 63 0.0 0.0 0.00 0.00 0.00 85 935.5
20260831090625 8 56 0.0 0.0 0.00 0.00 0.00 85 935.2
20260831090121 8 51 0.0 0.0 0.00 0.00 0.00 85 935.3
20260831085616 8 70 0.0 0.0 0.00 0.00 0.00 85 935.3
20260831085112 8 59 0.0 0.0 0.00 0.00 0.00 85 935.3
20260831084607 8 79 0.0 0.0 0.00 0.00 0.00 85 935.2
20260831084103 8 53 0.0 0.0 0.00 0.00 0.00 85 935.1
20260831083559 8 81 0.0 0.0 0.00 0.00 0.00 86 935.2
20260831083054 8 51 0.0 0.0 0.00 0.00 0.00 86 935.2
20260831082553 8 67 0.0 0.0 0.00 0.00 0.00 86 935.2
20260831082048 8 63 0.0 3.2 0.00 0.00 0.00 86 935.2
20260831081544 8 137 3.2 8.0 0.00 0.00 0.00 86 935.3
20260831081040 8 111 0.0 0.0 0.00 0.00 0.00 86 935.5
20260831080540 8 33 0.0 0.0 0.00 0.00 0.00 86 935.5
20260831080035 8 56 0.0 3.2 0.00 0.00 0.00 86 935.3
20260831075530 8 46 1.6 3.2 0.00 0.00 0.00 86 935.6
20260831075026 8 44 0.0 0.0 0.00 0.00 0.00 86 935.7
20260831074526 8 50 0.0 0.0 0.00 0.00 0.00 85 935.7
20260831074025 8 55 0.0 1.6 0.00 0.00 0.00 85 935.5
20260831073520 8 46 0.0 0.0 0.00 0.00 0.00 85 935.6
20260831073020 8 68 1.6 3.2 0.00 0.00 0.00 85 935.6
20260831072515 8 56 0.0 0.0 0.00 0.00 0.00 85 935.6
20260831072012 9 84 0.0 0.0 0.00 0.00 0.00 85 935.3
20260831071510 9 56 0.0 0.0 0.00 0.00 0.00 85 935.5
20260831071006 9 49 0.0 0.0 0.00 0.00 0.00 84 935.2
20260831070504 9 103 0.0 3.2 0.00 0.00 0.00 84 935.3
20260831070005 9 78 1.6 4.8 0.00 0.00 0.00 83 935.6
20260831065502 9 95 0.0 0.0 0.00 0.00 0.00 83 935.2
20260831064957 10 72 0.0 4.8 0.00 0.00 0.00 82 935.3
20260831064452 10 37 0.0 0.0 0.00 0.00 0.00 81 935.1
20260831063948 10 40 1.6 8.0 0.00 0.00 0.00 81 934.9
20260831063443 10 85 0.0 8.0 0.00 0.00 0.00 81 935.2
20260831062937 10 50 0.0 0.0 0.00 0.00 0.00 80 935.5
20260831062433 10 54 0.0 0.0 0.00 0.00 0.00 79 935.6
20260831061932 10 51 1.6 1.6 0.00 0.00 0.00 79 935.3
20260831061431 10 60 0.0 1.6 0.00 0.00 0.00 78 935.5
20260831060927 10 42 1.6 3.2 0.00 0.00 0.00 77 935.2
20260831060422 10 54 0.0 3.2 0.00 0.00 0.00 77 935.2
20260831055921 10 48 0.0 3.2 0.00 0.03 0.03 77 935.3
20260831055416 10 51 0.0 1.6 0.00 0.03 0.03 77 935.3
20260831054912 10 44 0.0 0.0 0.00 0.03 0.03 76 935.6
20260831054407 10 76 1.6 3.2 0.00 0.03 0.03 75 935.7
20260831053906 10 97 1.6 3.2 0.00 0.03 0.03 75 935.7
20260831053404 10 69 3.2 4.8 0.00 0.03 0.03 74 935.5
20260831052859 10 88 4.8 8.0 0.00 0.03 0.03 74 935.6
20260831052358 10 80 9.7 11.3 0.00 0.03 0.03 74 935.1
20260831051856 11 47 1.6 1.6 0.00 0.03 0.03 72 935.5
20260831051354 11 52 0.0 0.0 0.00 0.03 0.03 70 935.3
20260831050849 11 183 4.8 9.7 0.00 0.03 0.03 71 935.2
20260831050343 11 63 0.0 3.2 0.00 0.03 0.03 72 935.1
20260831045838 11 112 3.2 3.2 0.00 0.03 0.03 72 935.3
20260831045332 11 47 0.0 1.6 0.00 0.03 0.03 70 935.3
20260831044827 11 74 0.0 0.0 0.00 0.03 0.03 69 935.3
20260831044322 12 109 1.6 4.8 0.00 0.03 0.03 68 935.2
20260831043818 12 70 1.6 4.8 0.00 0.03 0.03 68 935.5
20260831043317 12 95 3.2 8.0 0.00 0.03 0.03 67 935.2
20260831042813 12 59 0.0 0.0 0.00 0.03 0.03 67 934.9
20260831042312 12 101 0.0 0.0 0.00 0.03 0.03 67 934.4
20260831041808 12 67 0.0 0.0 0.00 0.03 0.03 67 934.3
20260831041307 12 83 0.0 0.0 0.00 0.03 0.03 67 934.2
20260831040802 12 71 0.0 0.0 0.00 0.03 0.03 68 934.3
20260831040301 13 53 0.0 0.0 0.00 0.03 0.03 68 934.4
20260831035800 13 75 0.0 0.0 0.00 0.03 0.03 68 934.4
20260831035258 13 99 0.0 0.0 0.00 0.03 0.03 68 934.4
20260831034758 13 52 0.0 0.0 0.00 0.03 0.03 68 934.2
20260831034254 13 52 0.0 0.0 0.00 0.03 0.03 67 933.9
20260831033749 14 56 0.0 0.0 0.00 0.03 0.03 66 933.7
20260831033248 14 58 0.0 0.0 0.00 0.03 0.03 66 933.6
20260831032744 14 44 0.0 0.0 0.00 0.03 0.03 64 933.5
20260831032239 13 43 0.0 0.0 0.00 0.03 0.03 65 933.7
20260831031734 13 42 0.0 0.0 0.00 0.03 0.03 66 933.7
20260831031234 15 37 0.0 0.0 0.00 0.03 0.03 66 934.5
20260831030733 15 45 0.0 0.0 0.00 0.03 0.03 63 934.7
20260831030227 15 46 0.0 0.0 0.00 0.03 0.03 58 934.4
20260831025726 15 51 0.0 0.0 0.00 0.03 0.03 57 934.5
20260831025220 15 54 0.0 0.0 0.00 0.03 0.03 59 934.5
20260831024716 15 44 0.0 0.0 0.00 0.03 0.03 57 934.1
20260831024214 16 42 0.0 0.0 0.00 0.03 0.03 57 934.5
20260831023714 16 28 0.0 0.0 0.00 0.03 0.03 56 934.5
20260831023213 16 16 0.0 0.0 0.00 0.03 0.03 51 934.4
20260831022708 17 15 0.0 0.0 0.00 0.03 0.03 50 934.4
20260831022202 17 27 0.0 0.0 0.00 0.03 0.03 50 934.4
20260831021702 17 15 0.0 0.0 0.00 0.03 0.03 51 934.5
20260831021157 17 14 0.0 0.0 0.00 0.03 0.03 50 934.1
20260831020653 18 10 0.0 0.0 0.00 0.03 0.03 49 934.2
20260831020147 18 15 0.0 0.0 0.00 0.03 0.03 47 934.2
20260831015643 18 323 0.0 0.0 0.00 0.03 0.03 45 934.2
20260831015142 19 302 0.0 8.0 0.00 0.03 0.03 44 934.3
20260831014637 20 1 0.0 1.6 0.00 0.03 0.03 42 934.1
20260831014133 20 6 0.0 4.8 0.00 0.03 0.03 42 934.3
20260831013629 20 293 0.0 3.2 0.00 0.03 0.03 41 934.4
20260831013128 20 316 0.0 0.0 0.00 0.03 0.03 42 934.5
20260831012623 20 359 4.8 11.3 0.00 0.03 0.03 42 934.5
20260831012119 20 349 0.0 11.3 0.00 0.03 0.03 41 934.5
20260831011618 21 349 0.0 0.0 0.00 0.03 0.03 40 934.2
20260831011114 21 354 4.8 12.9 0.00 0.03 0.03 38 934.3
20260831010610 21 340 0.0 1.6 0.00 0.03 0.03 34 934.1
20260831010105 22 354 0.0 8.0 0.00 0.03 0.03 32 934.1
20260831005559 22 274 1.6 8.0 0.00 0.03 0.03 31 934.0
20260831005054 22 9 0.0 3.2 0.00 0.03 0.03 31 933.7
20260831004550 22 340 9.7 16.1 0.00 0.03 0.03 29 934.0
20260831004046 22 296 6.4 24.1 0.00 0.03 0.03 29 934.1
20260831003542 22 303 14.5 20.9 0.00 0.03 0.03 29 934.3
20260831003038 22 279 9.7 17.7 0.00 0.03 0.03 32 934.2
20260831002536 23 308 9.7 16.1 0.00 0.03 0.03 29 934.4
20260831002031 23 287 14.5 22.5 0.00 0.03 0.03 30 934.2
20260831001527 23 357 11.3 22.5 0.00 0.03 0.03 29 934.3
20260831001023 23 304 4.8 20.9 0.00 0.03 0.03 28 934.1
20260831000519 23 355 9.7 22.5 0.00 0.03 0.03 29 934.4
20260831000018 23 348 11.3 25.7 0.00 0.03 0.03 28 934.2
20260830235512 23 346 8.0 25.7 0.00 0.03 0.03 30 934.4
20260830235007 23 307 9.7 24.1 0.00 0.03 0.03 29 933.9
20260830234502 23 258 8.0 17.7 0.00 0.03 0.03 29 933.9
20260830233957 23 2 8.0 14.5 0.00 0.03 0.03 31 934.0
20260830233453 23 300 4.8 14.5 0.00 0.03 0.03 30 934.2
20260830232949 23 312 4.8 20.9 0.00 0.03 0.03 31 934.0
20260830232444 23 307 6.4 17.7 0.00 0.03 0.03 31 933.9
20260830231940 23 265 9.7 17.7 0.00 0.03 0.03 31 934.0
20260830231435 23 335 1.6 16.1 0.00 0.03 0.03 31 934.3
20260830230934 23 11 3.2 22.5 0.00 0.03 0.03 31 934.5
20260830230430 23 218 0.0 1.6 0.00 0.03 0.03 32 934.2
20260830225929 23 306 1.6 27.4 0.00 0.03 0.03 33 934.3